(114510) = 1998 QV70 = 2003 AW86

Discovered at Socorro on 2003-01-01 by LINEAR.

Orbit

Orbit type: Main Belt

Note: WebGL enabled browser required.

epoch2024-03-31.0
epoch JD2460400.5
perihelion date2023-07-03.46948
perihelion JD2460128.96948
argument of perihelion (°)161.04749
ascending node (°)227.25368
inclination (°)9.00710
eccentricity0.1167131
perihelion distance (AU)2.0333233
Tisserand w.r.t. Jupiter3.6
ΔV w.r.t. Earth (km/sec)9.3
semimajor axis (AU)2.3019965
mean anomaly (°)76.62412
mean daily motion (°/day)0.28219340
aphelion distance (AU)2.571
period (years)3.49
P-vector [x]0.87752661
P-vector [y]0.41725207
P-vector [z]0.23632131
Q-vector [x]-0.46554155
Q-vector [y]0.85944924
Q-vector [z]0.21122990
absolute magnitude16.22
phase slope0.15
uncertainty0
referenceMPEC 2024-C145
observations used762
oppositions16
arc length (days)9308
first opposition used1998
last opposition used2024
residual rms (arc-secs)0.70
perturbers coarse indicatorM-v
perturbers precise indicator003Ek
first observation date used1998-08-19.0
last observation date used2024-02-12.0
computer nameMPCLINUX
JD of orbit computation2456937.357350
perihelion JD uncertainty (days)9.1135E-05
argument of perihelion uncertainty (°)4.1126E-05
ascending node uncertainty (°)3.2367E-05
inclination uncertainty (°)4.3785E-06
eccentricity uncertainty 4.8336E-08
perihelion distance uncertainty (AU)1.0905E-07
Minimum Orbit Intersection Distances (in AU)
for orbit epoch: 2460200.5, reference: E2024-CE5
Mercury1.70221
Venus1.31374
Earth1.04049
Mars0.57268
Jupiter2.84495
Saturn6.86592
Uranus15.9593
Neptune27.8095

Observations

780 total observations over interval: 1998 08 19.38906 – 2024 02 12.335045
These data are available for download (format description).

Date (UT) J2000 RA J2000 Dec Magn Location Ref
1998 08 19.38906 22 41 23.65 +08 45 28.4 19.4   704 – Lincoln Laboratory ETS, New Mexico MPS 213575
1998 08 19.40171 22 41 22.84 +08 45 24.2 19.4   704 – Lincoln Laboratory ETS, New Mexico MPS 213575
1998 08 24.30211 22 37 29.68 +08 25 40.3 19.3   704 – Lincoln Laboratory ETS, New Mexico MPS 2068
1998 08 24.31854 22 37 28.78 +08 25 33.7 19.8   704 – Lincoln Laboratory ETS, New Mexico MPS 2068
1998 08 24.33493 22 37 28.03 +08 25 31.5 18.9   704 – Lincoln Laboratory ETS, New Mexico MPS 2068
1998 08 24.35134 22 37 27.06 +08 25 27.1 18.9   704 – Lincoln Laboratory ETS, New Mexico MPS 2068
1998 08 24.36781 22 37 26.29 +08 25 22.4 19.4   704 – Lincoln Laboratory ETS, New Mexico MPS 2068
1998 08 27.30081 22 34 59.04 +08 10 00.2 19.0   704 – Lincoln Laboratory ETS, New Mexico MPS 2068
1998 08 27.31839 22 34 58.05 +08 09 55.9 19.1   704 – Lincoln Laboratory ETS, New Mexico MPS 2068
1998 08 27.33603 22 34 57.17 +08 09 50.1 19.4   704 – Lincoln Laboratory ETS, New Mexico MPS 2068
1998 08 27.35363 22 34 56.08 +08 09 42.7 19.4   704 – Lincoln Laboratory ETS, New Mexico MPS 2068
1998 08 27.37133 22 34 55.15 +08 09 38.4 19.5   704 – Lincoln Laboratory ETS, New Mexico MPS 2068
1998 09 18.19774 22 17 19.19 +05 14 29.3 18.5 R 699 – Lowell Observatory-LONEOS MPS 76173
1998 09 18.22008 22 17 18.24 +05 14 16.2   699 – Lowell Observatory-LONEOS MPS 76173
1998 09 18.24242 22 17 17.25 +05 14 03.5   699 – Lowell Observatory-LONEOS MPS 76173
2002 12 01.28995 05 32 18.80 +15 08 53.1 19.2   704 – Lincoln Laboratory ETS, New Mexico MPS 81536
2002 12 01.30470 05 32 17.88 +15 08 47.0 19.3   704 – Lincoln Laboratory ETS, New Mexico MPS 81536
2002 12 01.31920 05 32 16.91 +15 08 41.5 19.3   704 – Lincoln Laboratory ETS, New Mexico MPS 81536
2002 12 01.33404 05 32 16.02 +15 08 34.9 19.5   704 – Lincoln Laboratory ETS, New Mexico MPS 81536
2003 01 01.28422 05 01 33.37 +12 36 29.4 19.8   704 – Lincoln Laboratory ETS, New Mexico MPS 74278
2003 01 01.29938 05 01 32.73 +12 36 28.5 19.2   704 – Lincoln Laboratory ETS, New Mexico MPS 74278
2003 01 01.31433 05 01 32.07 +12 36 26.1 19.5   704 – Lincoln Laboratory ETS, New Mexico MPS 74278
2003 01 01.32957 05 01 31.43 +12 36 22.9 19.3   704 – Lincoln Laboratory ETS, New Mexico MPS 74278
2003 01 07.22871 04 57 42.98 +12 24 37.9 19.3   704 – Lincoln Laboratory ETS, New Mexico MPS 74278
2003 01 07.24366 04 57 42.50 +12 24 38.0 19.5   704 – Lincoln Laboratory ETS, New Mexico MPS 74278
2003 01 07.25860 04 57 41.97 +12 24 35.6 19.5   704 – Lincoln Laboratory ETS, New Mexico MPS 74278
2003 01 07.27360 04 57 41.40 +12 24 34.5 20.2   704 – Lincoln Laboratory ETS, New Mexico MPS 74278
2003 01 07.28845 04 57 40.92 +12 24 33.2 19.8   704 – Lincoln Laboratory ETS, New Mexico MPS 74278
2003 01 27.23949 04 53 34.04 +12 25 39.0 19.8   644 – Palomar Mountain/NEAT MPS 81536
2003 01 27.26051 04 53 34.17 +12 25 40.3 19.7   644 – Palomar Mountain/NEAT MPS 81536
2003 01 27.28156 04 53 34.29 +12 25 42.3 19.9   644 – Palomar Mountain/NEAT MPS 81536
2004 04 12.23402 13 51 19.33 -16 38 54.0 19.3   644 – Palomar Mountain/NEAT MPS 105102
2004 04 12.25481 13 51 18.14 -16 38 44.4 19.6   644 – Palomar Mountain/NEAT MPS 105102
2004 04 12.27626 13 51 16.93 -16 38 34.0 19.6   644 – Palomar Mountain/NEAT MPS 105102
2004 04 19.25666 13 44 47.43 -15 40 25.5 19.4   704 – Lincoln Laboratory ETS, New Mexico MPS 105102
2004 04 19.26917 13 44 46.66 -15 40 19.9 19.9   704 – Lincoln Laboratory ETS, New Mexico MPS 105102
2004 04 19.28001 13 44 46.03 -15 40 14.2 19.7   704 – Lincoln Laboratory ETS, New Mexico MPS 105102
2004 04 19.29106 13 44 45.38 -15 40 07.8 19.6   704 – Lincoln Laboratory ETS, New Mexico MPS 105102
2004 04 30.25346 13 34 52.37 -14 03 30.1 21.5 V 691 – Steward Observatory, Kitt Peak-Spacewatch MPS 106246
2004 04 30.28029 13 34 50.99 -14 03 16.3 21.0 V 691 – Steward Observatory, Kitt Peak-Spacewatch MPS 106246
2004 04 30.30800 13 34 49.52 -14 03 01.5 20.5 V 691 – Steward Observatory, Kitt Peak-Spacewatch MPS 106246
2004 05 28.18126 13 19 01.01 -10 35 25.2 20.4 V 691 – Steward Observatory, Kitt Peak-Spacewatch MPS 108477
2004 05 28.21109 13 19 00.54 -10 35 15.2 20.8 V 691 – Steward Observatory, Kitt Peak-Spacewatch MPS 108477
2004 05 28.24234 13 19 00.09 -10 35 05.2 20.8 V 691 – Steward Observatory, Kitt Peak-Spacewatch MPS 108477
2005 08 28.40556 22 43 41.20 +08 51 56.7 19.4   608 – Haleakala-AMOS MPS 140186
2005 08 28.41623 22 43 40.59 +08 51 53.6 19.2   608 – Haleakala-AMOS MPS 140186
2005 08 28.42708 22 43 40.03 +08 51 49.2 19.3   608 – Haleakala-AMOS MPS 140186
2005 08 31.24457 22 41 17.27 +08 34 38.9 18.1 R 699 – Lowell Observatory-LONEOS MPS 140186
2005 08 31.27009 22 41 15.88 +08 34 29.2   699 – Lowell Observatory-LONEOS MPS 140186
2005 08 31.29560 22 41 14.56 +08 34 19.3   699 – Lowell Observatory-LONEOS MPS 140186
2005 08 31.32113 22 41 13.16 +08 34 08.7   699 – Lowell Observatory-LONEOS MPS 140186
2005 09 01.24586 22 40 25.90 +08 28 04.0 18.3   704 – Lincoln Laboratory ETS, New Mexico MPS 140186
2005 09 01.26867 22 40 24.73 +08 27 54.8 19.0   704 – Lincoln Laboratory ETS, New Mexico MPS 140186
2005 09 01.27993 22 40 24.11 +08 27 49.3 18.9   704 – Lincoln Laboratory ETS, New Mexico MPS 140186
2005 09 01.29121 22 40 23.47 +08 27 45.3 18.9   704 – Lincoln Laboratory ETS, New Mexico MPS 140186
2005 09 11.22452 22 32 01.28 +07 09 14.0 18.3   704 – Lincoln Laboratory ETS, New Mexico MPS 141692
2005 09 11.22461 22 32 01.29 +07 09 13.9 18.1   704 – Lincoln Laboratory ETS, New Mexico MPS 141692
2005 09 11.23610 22 32 00.69 +07 09 07.6 18.5   704 – Lincoln Laboratory ETS, New Mexico MPS 141692
2005 09 11.23620 22 32 00.69 +07 09 07.7 18.3   704 – Lincoln Laboratory ETS, New Mexico MPS 141692
2005 09 11.24746 22 32 00.11 +07 09 01.7 18.4   704 – Lincoln Laboratory ETS, New Mexico MPS 141692
2005 09 11.24756 22 32 00.10 +07 09 02.0 18.4   704 – Lincoln Laboratory ETS, New Mexico MPS 141692
2005 09 11.25927 22 31 59.51 +07 08 55.3 18.6   704 – Lincoln Laboratory ETS, New Mexico MPS 141692
2005 09 11.25937 22 31 59.52 +07 08 55.3 18.6   704 – Lincoln Laboratory ETS, New Mexico MPS 141692
2005 09 11.27069 22 31 58.92 +07 08 49.3 18.5   704 – Lincoln Laboratory ETS, New Mexico MPS 141692
2005 09 11.27079 22 31 58.91 +07 08 49.5 18.5   704 – Lincoln Laboratory ETS, New Mexico MPS 141692
2005 09 24.24343 22 22 59.04 +05 04 40.9 18.1 R 699 – Lowell Observatory-LONEOS MPS 142634
2005 09 24.25811 22 22 58.55 +05 04 32.2   699 – Lowell Observatory-LONEOS MPS 142634
2005 09 24.27284 22 22 57.94 +05 04 24.1   699 – Lowell Observatory-LONEOS MPS 142634
2005 09 24.28755 22 22 57.48 +05 04 15.3   699 – Lowell Observatory-LONEOS MPS 142634
2005 10 02.24225 22 19 27.85 +03 46 13.5 18.5 R 699 – Lowell Observatory-LONEOS MPS 143883
2005 10 02.26174 22 19 27.46 +03 46 01.8   699 – Lowell Observatory-LONEOS MPS 143883
2005 10 02.28012 22 19 27.08 +03 45 51.5   699 – Lowell Observatory-LONEOS MPS 143883
2005 10 02.29848 22 19 26.67 +03 45 41.7   699 – Lowell Observatory-LONEOS MPS 143883
2005 10 05.18969 22 18 39.52 +03 18 24.2 18.6 V 703 – Catalina Sky Survey MPS 143883
2005 10 05.19557 22 18 39.45 +03 18 20.0 18.7 V 703 – Catalina Sky Survey MPS 143883
2005 10 05.20146 22 18 39.34 +03 18 16.9 18.7 V 703 – Catalina Sky Survey MPS 143883
2005 10 05.20736 22 18 39.24 +03 18 14.0 18.7 V 703 – Catalina Sky Survey MPS 143883
2005 10 05.21431 22 18 39.13 +03 18 09.4 19.2 V 703 – Catalina Sky Survey MPS 143883
2005 10 05.22024 22 18 39.02 +03 18 06.4 18.7 V 703 – Catalina Sky Survey MPS 143883
2005 10 05.22615 22 18 38.95 +03 18 02.9 18.5 V 703 – Catalina Sky Survey MPS 143883
2005 10 05.23208 22 18 38.88 +03 18 00.5 18.7 V 703 – Catalina Sky Survey MPS 143883
2005 10 23.165297 22 19 56.748 +00 56 48.09 19.41 V 645 – Apache Point-Sloan Digital Sky Survey MPS 389869
2005 10 23.168769 22 19 56.814 +00 56 46.79 20.26   645 – Apache Point-Sloan Digital Sky Survey MPS 389869
2005 10 25.177527 22 20 44.586 +00 44 44.53 19.51 V 645 – Apache Point-Sloan Digital Sky Survey MPS 389869
2005 10 25.180999 22 20 44.669 +00 44 43.28 20.35   645 – Apache Point-Sloan Digital Sky Survey MPS 389869
2005 10 27.11799 22 21 38.08 +00 33 55.8 19.0 R 644 – Palomar Mountain/NEAT MPS 147132
